Oakland, CA

9:27 AM PDT on June 21, 2018 (GMT -0700)
Metro Oakland International

Weather History for KOAK - November, 2017

Change the Weather History Date:

Thursday, November 9, 2017

  Actual Average Record
Temperature  
Mean Temperature 63 °F 56 °F  
Max Temperature 73 °F 65 °F 76 °F (1955)
Min Temperature 53 °F 47 °F 41 °F (1961)
Degree Days  
Heating Degree Days 2 9  
Month to date heating degree days 81 74  
Since 1 July heating degree days 274 426  
Cooling Degree Days 0 0  
Month to date cooling degree days 0 0  
Year to date cooling degree days 312 137  
Growing Degree Days 10 (Base 50)    
Moisture  
Dew Point 57 °F    
Average Humidity 84    
Maximum Humidity 100    
Minimum Humidity 67    
Precipitation  
Precipitation 0.02 in 0.08 in 1.53 in (1949)
Month to date precipitation 0.45 0.69  
Year to date precipitation 20.70 15.39  
Sea Level Pressure  
Sea Level Pressure 30.02 in    
Wind  
Wind Speed 6 mph (South)    
Max Wind Speed 16 mph    
Max Gust Speed 20 mph    
Visibility 10 miles    
Events Rain    
T = Trace of Precipitation, MM = Missing Value Source: NWS Daily Summary

Daily Weather History Graph

Daily Weather History Graph

Search for Another Location

Airport or City:

Astronomy

Nov. 09, 2017 Rise Set
Actual Time 6:42 AM PST 5:02 PM PST
Civil Twilight 6:15 AM PST 5:29 PM PST
Nautical Twilight 5:43 AM PST 6:01 PM PST
Astronomical Twilight 5:13 AM PST 6:31 PM PST
Moon 10:47 PM PST (11/9) 12:14 PM PST (11/9)
Length of Visible Light 11h 14m
Length of Day
10h 19m
Waning Gibbous, 62% of the Moon is Illuminated
Nov 9
Waning Gibbous
Nov 10
Last Quarter
Nov 18
New
Nov 26
First Quarter
Dec 3
Full

Hourly Weather History & Observations

Time (PST) Temp. Dew Point Humidity Pressure Visibility Wind Dir Wind Speed Gust Speed Precip Events Conditions
12:51 AM 59.0 °F 59.0 °F 100% 29.94 in 8.0 mi South 11.5 mph - 0.01 in Rain Light Rain
12:53 AM 59.0 °F 59.0 °F 100% 29.95 in 8.0 mi South 10.4 mph - 0.01 in Rain Light Rain
1:53 AM 59.0 °F 59.0 °F 100% 29.96 in 10.0 mi SSW 10.4 mph - 0.00 in Rain Light Rain
2:53 AM 59.0 °F 59.0 °F 100% 29.97 in 10.0 mi SSW 9.2 mph - 0.02 in   Mostly Cloudy
3:01 AM 59.0 °F 59.0 °F 100% 29.97 in 10.0 mi SSW 9.2 mph - N/A   Mostly Cloudy
3:53 AM 59.0 °F 57.9 °F 96% 29.98 in 10.0 mi SSW 8.1 mph - N/A   Partly Cloudy
4:34 AM 57.9 °F 57.9 °F 100% 29.99 in 10.0 mi ESE 5.8 mph - N/A   Overcast
4:53 AM 57.9 °F 57.9 °F 100% 29.99 in 10.0 mi SE 3.5 mph - N/A   Overcast
5:53 AM 57.9 °F 57.9 °F 100% 30.01 in 10.0 mi SE 9.2 mph - N/A   Overcast
6:53 AM 57.9 °F 57.9 °F 100% 30.01 in 10.0 mi SE 9.2 mph - 0.00 in   Overcast
7:53 AM 59.0 °F 57.0 °F 93% 30.03 in 10.0 mi ESE 4.6 mph - N/A   Overcast
8:36 AM 60.1 °F 57.0 °F 90% 30.04 in 10.0 mi SE 8.1 mph - N/A Rain Light Rain
8:53 AM 60.1 °F 57.0 °F 90% 30.04 in 10.0 mi SE 8.1 mph - N/A   Mostly Cloudy
9:26 AM 61.0 °F 59.0 °F 93% 30.04 in 10.0 mi SSE 6.9 mph - N/A   Mostly Cloudy
9:53 AM 61.0 °F 60.1 °F 97% 30.05 in 10.0 mi South 8.1 mph - N/A   Mostly Cloudy
10:53 AM 62.1 °F 59.0 °F 90% 30.06 in 10.0 mi South 5.8 mph - N/A   Mostly Cloudy
11:53 AM 63.0 °F 59.0 °F 87% 30.04 in 10.0 mi SSE 6.9 mph - N/A   Mostly Cloudy
12:53 PM 64.0 °F 57.0 °F 78% 30.03 in 10.0 mi South 5.8 mph - N/A   Scattered Clouds
1:53 PM 64.9 °F 57.0 °F 75% 30.02 in 10.0 mi South 6.9 mph - N/A   Mostly Cloudy
2:53 PM 66.0 °F 55.0 °F 68% 30.02 in 10.0 mi SW 8.1 mph - N/A   Mostly Cloudy
3:53 PM 64.0 °F 54.0 °F 70% 30.03 in 10.0 mi WSW 6.9 mph - N/A   Mostly Cloudy
4:53 PM 62.1 °F 55.0 °F 78% 30.03 in 10.0 mi WSW 9.2 mph - N/A   Mostly Cloudy
5:53 PM 61.0 °F 55.0 °F 81% 30.04 in 10.0 mi Calm Calm - N/A   Mostly Cloudy
6:53 PM 60.1 °F 55.9 °F 86% 30.05 in 10.0 mi WSW 3.5 mph - N/A   Mostly Cloudy
7:53 PM 57.0 °F 54.0 °F 89% 30.05 in 10.0 mi Calm Calm - N/A   Mostly Cloudy
8:53 PM 55.0 °F 52.0 °F 89% 30.06 in 10.0 mi East 3.5 mph - N/A   Mostly Cloudy
9:53 PM 54.0 °F 53.1 °F 97% 30.07 in 10.0 mi ENE 3.5 mph - N/A   Mostly Cloudy
10:53 PM 54.0 °F 53.1 °F 97% 30.07 in 10.0 mi Calm Calm - N/A   Mostly Cloudy
11:53 PM 55.9 °F 54.0 °F 93% 30.06 in 10.0 mi SE 8.1 mph - N/A   Mostly Cloudy